Year,Month,Day,Hour,Minute,Value (Times are PST for temperature in C)
2013,09,26,00,00,8.30
2013,09,26,00,01,8.30
2013,09,26,00,02,8.30
2013,09,26,00,03,8.30
2013,09,26,00,04,8.30
2013,09,26,00,05,8.30
2013,09,26,00,06,8.20
2013,09,26,00,07,8.20
2013,09,26,00,08,8.20
2013,09,26,00,09,8.20
2013,09,26,00,10,8.20
2013,09,26,00,11,8.20
2013,09,26,00,12,8.20
2013,09,26,00,13,8.10
2013,09,26,00,14,8.10
2013,09,26,00,15,8.10
2013,09,26,00,16,8.10
2013,09,26,00,17,8.10
2013,09,26,00,18,8.10
2013,09,26,00,19,8.10
2013,09,26,00,20,8.10
2013,09,26,00,21,8.10
2013,09,26,00,22,8.00
2013,09,26,00,23,8.00
2013,09,26,00,24,8.00
2013,09,26,00,25,8.00
2013,09,26,00,26,7.90
2013,09,26,00,27,7.90
2013,09,26,00,28,7.90
2013,09,26,00,29,7.90
2013,09,26,00,30,7.90
2013,09,26,00,31,7.80
2013,09,26,00,32,7.80
2013,09,26,00,33,7.80
2013,09,26,00,34,7.80
2013,09,26,00,35,7.80
2013,09,26,00,36,7.80
2013,09,26,00,37,7.80
2013,09,26,00,38,7.80
2013,09,26,00,39,7.80
2013,09,26,00,40,7.80
2013,09,26,00,41,7.80
2013,09,26,00,42,7.80
2013,09,26,00,43,7.80
2013,09,26,00,44,7.80
2013,09,26,00,45,7.80
2013,09,26,00,46,7.80
2013,09,26,00,47,7.80
2013,09,26,00,48,7.80
2013,09,26,00,49,7.80
2013,09,26,00,50,7.80
2013,09,26,00,51,7.80
2013,09,26,00,52,7.80
2013,09,26,00,53,7.80
2013,09,26,00,54,7.80
2013,09,26,00,55,7.80
2013,09,26,00,56,7.80
2013,09,26,00,57,7.80
2013,09,26,00,58,7.80
2013,09,26,00,59,7.80
2013,09,26,01,00,7.80
2013,09,26,01,01,7.80
2013,09,26,01,02,7.80
2013,09,26,01,03,7.80
2013,09,26,01,04,7.70
2013,09,26,01,05,7.70
2013,09,26,01,06,7.70
2013,09,26,01,07,7.70
2013,09,26,01,08,7.70
2013,09,26,01,09,7.70
2013,09,26,01,10,7.70
2013,09,26,01,11,7.70
2013,09,26,01,12,7.60
2013,09,26,01,13,7.60
2013,09,26,01,14,7.60
2013,09,26,01,15,7.60
2013,09,26,01,16,7.60
2013,09,26,01,17,7.60
2013,09,26,01,18,7.60
2013,09,26,01,19,7.60
2013,09,26,01,20,7.60
2013,09,26,01,21,7.50
2013,09,26,01,22,7.50
2013,09,26,01,23,7.50
2013,09,26,01,24,7.50
2013,09,26,01,25,7.50
2013,09,26,01,26,7.50
2013,09,26,01,27,7.50
2013,09,26,01,28,7.50
2013,09,26,01,29,7.40
2013,09,26,01,30,7.40
2013,09,26,01,31,7.40
2013,09,26,01,32,7.40
2013,09,26,01,33,7.40
2013,09,26,01,34,7.30
2013,09,26,01,35,7.30
2013,09,26,01,36,7.30
2013,09,26,01,37,7.30
2013,09,26,01,38,7.30
2013,09,26,01,39,7.30
2013,09,26,01,40,7.30
2013,09,26,01,41,7.30
2013,09,26,01,42,7.30
2013,09,26,01,43,7.30
2013,09,26,01,44,7.30
2013,09,26,01,45,7.30
2013,09,26,01,46,7.30
2013,09,26,01,47,7.30
2013,09,26,01,48,7.30
2013,09,26,01,49,7.30
2013,09,26,01,50,7.30
2013,09,26,01,51,7.30
2013,09,26,01,52,7.30
2013,09,26,01,53,7.30
2013,09,26,01,54,7.20
2013,09,26,01,55,7.20
2013,09,26,01,56,7.20
2013,09,26,01,57,7.20
2013,09,26,01,58,7.20
2013,09,26,01,59,7.10
2013,09,26,02,00,7.10
2013,09,26,02,01,7.10
2013,09,26,02,02,7.00
2013,09,26,02,03,7.00
2013,09,26,02,04,7.00
2013,09,26,02,05,6.90
2013,09,26,02,06,6.90
2013,09,26,02,07,6.90
2013,09,26,02,08,6.80
2013,09,26,02,09,6.80
2013,09,26,02,10,6.80
2013,09,26,02,11,6.80
2013,09,26,02,12,6.80
2013,09,26,02,13,6.80
2013,09,26,02,14,6.80
2013,09,26,02,15,6.80
2013,09,26,02,16,6.80
2013,09,26,02,17,6.80
2013,09,26,02,18,6.80
2013,09,26,02,19,6.80
2013,09,26,02,20,6.70
2013,09,26,02,21,6.70
2013,09,26,02,22,6.70
2013,09,26,02,23,6.70
2013,09,26,02,24,6.70
2013,09,26,02,25,6.70
2013,09,26,02,26,6.70
2013,09,26,02,27,6.70
2013,09,26,02,28,6.70
2013,09,26,02,29,6.70
2013,09,26,02,30,6.70
2013,09,26,02,31,6.70
2013,09,26,02,32,6.70
2013,09,26,02,33,6.70
2013,09,26,02,34,6.70
2013,09,26,02,35,6.70
2013,09,26,02,36,6.70
2013,09,26,02,37,6.70
2013,09,26,02,38,6.60
2013,09,26,02,39,6.70
2013,09,26,02,40,6.70
2013,09,26,02,41,6.70
2013,09,26,02,42,6.70
2013,09,26,02,43,6.60
2013,09,26,02,44,6.60
2013,09,26,02,45,6.60
2013,09,26,02,46,6.60
2013,09,26,02,47,6.60
2013,09,26,02,48,6.60
2013,09,26,02,49,6.50
2013,09,26,02,50,6.40
2013,09,26,02,51,6.40
2013,09,26,02,52,6.40
2013,09,26,02,53,6.40
2013,09,26,02,54,6.40
2013,09,26,02,55,6.50
2013,09,26,02,56,6.60
2013,09,26,02,57,6.60
2013,09,26,02,58,6.60
2013,09,26,02,59,6.60
2013,09,26,03,00,6.60
2013,09,26,03,01,6.60
2013,09,26,03,02,6.60
2013,09,26,03,03,6.50
2013,09,26,03,04,6.40
2013,09,26,03,05,6.40
2013,09,26,03,06,6.40
2013,09,26,03,07,6.40
2013,09,26,03,08,6.40
2013,09,26,03,09,6.40
2013,09,26,03,10,6.40
2013,09,26,03,11,6.40
2013,09,26,03,12,6.40
2013,09,26,03,13,6.40
2013,09,26,03,14,6.40
2013,09,26,03,15,6.40
2013,09,26,03,16,6.40
2013,09,26,03,17,6.40
2013,09,26,03,18,6.40
2013,09,26,03,19,6.40
2013,09,26,03,20,6.40
2013,09,26,03,21,6.40
2013,09,26,03,22,6.40
2013,09,26,03,23,6.40
2013,09,26,03,24,6.40
2013,09,26,03,25,6.40
2013,09,26,03,26,6.40
2013,09,26,03,27,6.40
2013,09,26,03,28,6.40
2013,09,26,03,29,6.40
2013,09,26,03,30,6.40
2013,09,26,03,31,6.40
2013,09,26,03,32,6.40
2013,09,26,03,33,6.40
2013,09,26,03,34,6.40
2013,09,26,03,35,6.40
2013,09,26,03,36,6.40
2013,09,26,03,37,6.40
2013,09,26,03,38,6.40
2013,09,26,03,39,6.40
2013,09,26,03,40,6.40
2013,09,26,03,41,6.40
2013,09,26,03,42,6.30
2013,09,26,03,43,6.30
2013,09,26,03,44,6.20
2013,09,26,03,45,6.20
2013,09,26,03,46,6.20
2013,09,26,03,47,6.20
2013,09,26,03,48,6.10
2013,09,26,03,49,6.10
2013,09,26,03,50,6.00
2013,09,26,03,51,6.00
2013,09,26,03,52,6.00
2013,09,26,03,53,6.00
2013,09,26,03,54,6.00
2013,09,26,03,55,6.00
2013,09,26,03,56,6.00
2013,09,26,03,57,6.00
2013,09,26,03,58,5.90
2013,09,26,03,59,5.90
2013,09,26,04,00,5.90
2013,09,26,04,01,5.90
2013,09,26,04,02,5.90
2013,09,26,04,03,5.90
2013,09,26,04,04,5.90
2013,09,26,04,05,5.90
2013,09,26,04,06,5.90
2013,09,26,04,07,5.90
2013,09,26,04,08,5.80
2013,09,26,04,09,5.80
2013,09,26,04,10,5.90
2013,09,26,04,11,5.90
2013,09,26,04,12,5.90
2013,09,26,04,13,5.90
2013,09,26,04,14,5.90
2013,09,26,04,15,5.90
2013,09,26,04,16,5.90
2013,09,26,04,17,5.90
2013,09,26,04,18,5.90
2013,09,26,04,19,5.90
2013,09,26,04,20,5.90
2013,09,26,04,21,5.90
2013,09,26,04,22,5.90
2013,09,26,04,23,5.90
2013,09,26,04,24,5.90
2013,09,26,04,25,5.90
2013,09,26,04,26,5.90
2013,09,26,04,27,5.90
2013,09,26,04,28,5.90
2013,09,26,04,29,6.00
2013,09,26,04,30,6.00
2013,09,26,04,31,6.10
2013,09,26,04,32,6.10
2013,09,26,04,33,6.10
2013,09,26,04,34,6.20
2013,09,26,04,35,6.20
2013,09,26,04,36,6.10
2013,09,26,04,37,6.10
2013,09,26,04,38,6.10
2013,09,26,04,39,6.00
2013,09,26,04,40,6.00
2013,09,26,04,41,6.00
2013,09,26,04,42,6.00
2013,09,26,04,43,6.00
2013,09,26,04,44,6.00
2013,09,26,04,45,6.00
2013,09,26,04,46,6.00
2013,09,26,04,47,6.00
2013,09,26,04,48,6.00
2013,09,26,04,49,5.90
2013,09,26,04,50,5.90
2013,09,26,04,51,5.90
2013,09,26,04,52,5.80
2013,09,26,04,53,5.80
2013,09,26,04,54,5.80
2013,09,26,04,55,5.80
2013,09,26,04,56,5.70
2013,09,26,04,57,5.70
2013,09,26,04,58,5.70
2013,09,26,04,59,5.70
2013,09,26,05,00,5.70
2013,09,26,05,01,5.70
2013,09,26,05,02,5.70
2013,09,26,05,03,5.70
2013,09,26,05,04,5.70
2013,09,26,05,05,5.80
2013,09,26,05,06,5.90
2013,09,26,05,07,5.90
2013,09,26,05,08,6.00
2013,09,26,05,09,6.00
2013,09,26,05,10,6.00
2013,09,26,05,11,6.00
2013,09,26,05,12,6.00
2013,09,26,05,13,6.00
2013,09,26,05,14,6.00
2013,09,26,05,15,6.00
2013,09,26,05,16,6.00
2013,09,26,05,17,6.00
2013,09,26,05,18,6.00
2013,09,26,05,19,6.00
2013,09,26,05,20,6.00
2013,09,26,05,21,5.90
2013,09,26,05,22,5.90
2013,09,26,05,23,5.90
2013,09,26,05,24,5.90
2013,09,26,05,25,5.90
2013,09,26,05,26,5.90
2013,09,26,05,27,5.90
2013,09,26,05,28,5.90
2013,09,26,05,29,5.90
2013,09,26,05,30,5.80
2013,09,26,05,31,5.80
2013,09,26,05,32,5.80
2013,09,26,05,33,5.80
2013,09,26,05,34,5.80
2013,09,26,05,35,5.80
2013,09,26,05,36,5.80
2013,09,26,05,37,5.80
2013,09,26,05,38,5.90
2013,09,26,05,39,5.90
2013,09,26,05,40,5.90
2013,09,26,05,41,5.90
2013,09,26,05,42,5.90
2013,09,26,05,43,5.90
2013,09,26,05,44,5.90
2013,09,26,05,45,5.90
2013,09,26,05,46,5.90
2013,09,26,05,47,5.80
2013,09,26,05,48,5.80
2013,09,26,05,49,5.90
2013,09,26,05,50,5.90
2013,09,26,05,51,5.80
2013,09,26,05,52,5.80
2013,09,26,05,53,5.80
2013,09,26,05,54,5.80
2013,09,26,05,55,5.80
2013,09,26,05,56,5.80
2013,09,26,05,57,5.80
2013,09,26,05,58,5.80
2013,09,26,05,59,5.80
2013,09,26,06,00,5.80
2013,09,26,06,01,5.80
2013,09,26,06,02,5.80
2013,09,26,06,03,5.80
2013,09,26,06,04,5.80
2013,09,26,06,05,5.80
2013,09,26,06,06,5.80
2013,09,26,06,07,5.80
2013,09,26,06,08,5.80
2013,09,26,06,09,5.80
2013,09,26,06,10,5.80
2013,09,26,06,11,5.90
2013,09,26,06,12,5.90
2013,09,26,06,13,5.90
2013,09,26,06,14,5.90
2013,09,26,06,15,5.90
2013,09,26,06,16,5.90
2013,09,26,06,17,5.90
2013,09,26,06,18,5.80
2013,09,26,06,19,5.80
2013,09,26,06,20,5.80
2013,09,26,06,21,5.80
2013,09,26,06,22,5.80
2013,09,26,06,23,5.80
2013,09,26,06,24,5.70
2013,09,26,06,25,5.70
2013,09,26,06,26,5.70
2013,09,26,06,27,5.70
2013,09,26,06,28,5.70
2013,09,26,06,29,5.70
2013,09,26,06,30,5.70
2013,09,26,06,31,5.70
2013,09,26,06,32,5.70
2013,09,26,06,33,5.70
2013,09,26,06,34,5.60
2013,09,26,06,35,5.60
2013,09,26,06,36,5.60
2013,09,26,06,37,5.60
2013,09,26,06,38,5.50
2013,09,26,06,39,5.50
2013,09,26,06,40,5.50
2013,09,26,06,41,5.40
2013,09,26,06,42,5.40
2013,09,26,06,43,5.40
2013,09,26,06,44,5.40
2013,09,26,06,45,5.40
2013,09,26,06,46,5.40
2013,09,26,06,47,5.40
2013,09,26,06,48,5.40
2013,09,26,06,49,5.40
2013,09,26,06,50,5.40
2013,09,26,06,51,5.40
2013,09,26,06,52,5.40
2013,09,26,06,53,5.40
2013,09,26,06,54,5.40
2013,09,26,06,55,5.40
2013,09,26,06,56,5.50
2013,09,26,06,57,5.50
2013,09,26,06,58,5.50
2013,09,26,06,59,5.50
2013,09,26,07,00,5.40
2013,09,26,07,01,5.40
2013,09,26,07,02,5.40
2013,09,26,07,03,5.40
2013,09,26,07,04,5.40
2013,09,26,07,05,5.40
2013,09,26,07,06,5.40
2013,09,26,07,07,5.40
2013,09,26,07,08,5.40
2013,09,26,07,09,5.40
2013,09,26,07,10,5.30
2013,09,26,07,11,5.30
2013,09,26,07,12,5.30
2013,09,26,07,13,5.30
2013,09,26,07,14,5.30
2013,09,26,07,15,5.30
2013,09,26,07,16,5.30
2013,09,26,07,17,5.40
2013,09,26,07,18,5.40
2013,09,26,07,19,5.40
2013,09,26,07,20,5.40
2013,09,26,07,21,5.40
2013,09,26,07,22,5.40
2013,09,26,07,23,5.40
2013,09,26,07,24,5.30
2013,09,26,07,25,5.30
2013,09,26,07,26,5.40
2013,09,26,07,27,5.40
2013,09,26,07,28,5.30
2013,09,26,07,29,5.40
2013,09,26,07,30,5.40
2013,09,26,07,31,5.40
2013,09,26,07,32,5.40
2013,09,26,07,33,5.40
2013,09,26,07,34,5.40
2013,09,26,07,35,5.40
2013,09,26,07,36,5.30
2013,09,26,07,37,5.30
2013,09,26,07,38,5.30
2013,09,26,07,39,5.30
2013,09,26,07,40,5.30
2013,09,26,07,41,5.30
2013,09,26,07,42,5.30
2013,09,26,07,43,5.30
2013,09,26,07,44,5.30
2013,09,26,07,45,5.30
2013,09,26,07,46,5.30
2013,09,26,07,47,5.40
2013,09,26,07,48,5.40
2013,09,26,07,49,5.40
2013,09,26,07,50,5.40
2013,09,26,07,51,5.50
2013,09,26,07,52,5.50
2013,09,26,07,53,5.50
2013,09,26,07,54,5.60
2013,09,26,07,55,5.60
2013,09,26,07,56,5.60
2013,09,26,07,57,5.60
2013,09,26,07,58,5.50
2013,09,26,07,59,5.50
2013,09,26,08,00,5.50
2013,09,26,08,01,5.60
2013,09,26,08,02,5.60
2013,09,26,08,03,5.60
2013,09,26,08,04,5.70
2013,09,26,08,05,5.70
2013,09,26,08,06,5.70
2013,09,26,08,07,5.70
2013,09,26,08,08,5.70
2013,09,26,08,09,5.70
2013,09,26,08,10,5.70
2013,09,26,08,11,5.70
2013,09,26,08,12,5.70
2013,09,26,08,13,5.70
2013,09,26,08,14,5.70
2013,09,26,08,15,5.70
2013,09,26,08,16,5.70
2013,09,26,08,17,5.70
2013,09,26,08,18,5.70
2013,09,26,08,19,5.70
2013,09,26,08,20,5.90
2013,09,26,08,21,6.00
2013,09,26,08,22,6.10
2013,09,26,08,23,6.20
2013,09,26,08,24,6.30
2013,09,26,08,25,6.30
2013,09,26,08,26,6.30
2013,09,26,08,27,6.40
2013,09,26,08,28,6.50
2013,09,26,08,29,6.60
2013,09,26,08,30,6.60
2013,09,26,08,31,6.70
2013,09,26,08,32,6.80
2013,09,26,08,33,6.80
2013,09,26,08,34,6.90
2013,09,26,08,35,7.00
2013,09,26,08,36,7.10
2013,09,26,08,37,7.20
2013,09,26,08,38,7.20
2013,09,26,08,39,7.30
2013,09,26,08,40,7.40
2013,09,26,08,41,7.40
2013,09,26,08,42,7.40
2013,09,26,08,43,7.50
2013,09,26,08,44,7.50
2013,09,26,08,45,7.60
2013,09,26,08,46,7.70
2013,09,26,08,47,7.80
2013,09,26,08,48,7.80
2013,09,26,08,49,7.90
2013,09,26,08,50,8.00
2013,09,26,08,51,8.10
2013,09,26,08,52,8.10
2013,09,26,08,53,8.20
2013,09,26,08,54,8.30
2013,09,26,08,55,8.40
2013,09,26,08,56,8.40
2013,09,26,08,57,8.50
2013,09,26,08,58,8.60
2013,09,26,08,59,8.70
2013,09,26,09,00,8.70
2013,09,26,09,01,8.80
2013,09,26,09,02,8.80
2013,09,26,09,03,8.90
2013,09,26,09,04,9.00
2013,09,26,09,05,9.10
2013,09,26,09,06,9.20
2013,09,26,09,07,9.20
2013,09,26,09,08,9.40
2013,09,26,09,09,9.50
2013,09,26,09,10,9.60
2013,09,26,09,11,9.70
2013,09,26,09,12,9.70
2013,09,26,09,13,9.70
2013,09,26,09,14,9.80
2013,09,26,09,15,9.90
2013,09,26,09,16,10.10
2013,09,26,09,17,10.10
2013,09,26,09,18,10.30
2013,09,26,09,19,10.40
2013,09,26,09,20,10.40
2013,09,26,09,21,10.60
2013,09,26,09,22,10.70
2013,09,26,09,23,10.80
2013,09,26,09,24,11.00
2013,09,26,09,25,11.10
2013,09,26,09,26,11.20
2013,09,26,09,27,11.30
2013,09,26,09,28,11.40
2013,09,26,09,29,11.60
2013,09,26,09,30,11.60
2013,09,26,09,31,11.70
2013,09,26,09,32,11.80
2013,09,26,09,33,11.80
2013,09,26,09,34,12.00
2013,09,26,09,35,12.00
2013,09,26,09,36,12.10
2013,09,26,09,37,12.20
2013,09,26,09,38,12.20
2013,09,26,09,39,12.30
2013,09,26,09,40,12.40
2013,09,26,09,41,12.40
2013,09,26,09,42,12.40
2013,09,26,09,43,12.50
2013,09,26,09,44,12.50
2013,09,26,09,45,12.60
2013,09,26,09,46,12.70
2013,09,26,09,47,12.80
2013,09,26,09,48,12.80
2013,09,26,09,49,12.80
2013,09,26,09,50,12.80
2013,09,26,09,51,12.90
2013,09,26,09,52,12.90
2013,09,26,09,53,12.90
2013,09,26,09,54,12.90
2013,09,26,09,55,12.90
2013,09,26,09,56,12.90
2013,09,26,09,57,12.90
2013,09,26,09,58,13.00
2013,09,26,09,59,13.00
2013,09,26,10,00,13.10
2013,09,26,10,01,13.10
2013,09,26,10,02,13.10
2013,09,26,10,03,13.10
2013,09,26,10,04,13.20
2013,09,26,10,05,13.20
2013,09,26,10,06,13.30
2013,09,26,10,07,13.30
2013,09,26,10,08,13.30
2013,09,26,10,09,13.40
2013,09,26,10,10,13.50
2013,09,26,10,11,13.60
2013,09,26,10,12,13.60
2013,09,26,10,13,13.60
2013,09,26,10,14,13.60
2013,09,26,10,15,13.50
2013,09,26,10,16,13.60
2013,09,26,10,17,13.60
2013,09,26,10,18,13.70
2013,09,26,10,19,13.80
2013,09,26,10,20,13.80
2013,09,26,10,21,13.80
2013,09,26,10,22,13.70
2013,09,26,10,23,13.70
2013,09,26,10,24,13.70
2013,09,26,10,25,13.80
2013,09,26,10,26,13.80
2013,09,26,10,27,13.90
2013,09,26,10,28,13.90
2013,09,26,10,29,14.00
2013,09,26,10,30,14.00
2013,09,26,10,31,13.90
2013,09,26,10,32,13.90
2013,09,26,10,33,13.90
2013,09,26,10,34,13.90
2013,09,26,10,35,14.00
2013,09,26,10,36,13.90
2013,09,26,10,37,13.90
2013,09,26,10,38,13.90
2013,09,26,10,39,13.90
2013,09,26,10,40,13.90
2013,09,26,10,41,13.90
2013,09,26,10,42,13.90
2013,09,26,10,43,13.90
2013,09,26,10,44,13.90
2013,09,26,10,45,13.80
2013,09,26,10,46,13.80
2013,09,26,10,47,13.80
2013,09,26,10,48,13.80
2013,09,26,10,49,13.90
2013,09,26,10,50,13.90
2013,09,26,10,51,14.00
2013,09,26,10,52,14.00
2013,09,26,10,53,14.10
2013,09,26,10,54,14.20
2013,09,26,10,55,14.20
2013,09,26,10,56,14.20
2013,09,26,10,57,14.20
2013,09,26,10,58,14.20
2013,09,26,10,59,14.20
2013,09,26,11,00,14.20
2013,09,26,11,01,14.20
2013,09,26,11,02,14.20
2013,09,26,11,03,14.20
2013,09,26,11,04,14.20
2013,09,26,11,05,14.20
2013,09,26,11,06,14.30
2013,09,26,11,07,14.40
2013,09,26,11,08,14.50
2013,09,26,11,09,14.50
2013,09,26,11,10,14.60
2013,09,26,11,11,14.80
2013,09,26,11,12,14.80
2013,09,26,11,13,14.80
2013,09,26,11,14,14.80
2013,09,26,11,15,14.90
2013,09,26,11,16,15.00
2013,09,26,11,17,15.10
2013,09,26,11,18,15.20
2013,09,26,11,19,15.20
2013,09,26,11,20,15.20
2013,09,26,11,21,15.20
2013,09,26,11,22,15.30
2013,09,26,11,23,15.40
2013,09,26,11,24,15.40
2013,09,26,11,25,15.40
2013,09,26,11,26,15.30
2013,09,26,11,27,15.40
2013,09,26,11,28,15.50
2013,09,26,11,29,15.50
2013,09,26,11,30,15.40
2013,09,26,11,31,15.40
2013,09,26,11,32,15.40
2013,09,26,11,33,15.30
2013,09,26,11,34,15.20
2013,09,26,11,35,15.20
2013,09,26,11,36,15.30
2013,09,26,11,37,15.30
2013,09,26,11,38,15.30
2013,09,26,11,39,15.40
2013,09,26,11,40,15.40
2013,09,26,11,41,15.40
2013,09,26,11,42,15.50
2013,09,26,11,43,15.50
2013,09,26,11,44,15.40
2013,09,26,11,45,15.50
2013,09,26,11,46,15.50
2013,09,26,11,47,15.40
2013,09,26,11,48,15.40
2013,09,26,11,49,15.40
2013,09,26,11,50,15.40
2013,09,26,11,51,15.40
2013,09,26,11,52,15.50
2013,09,26,11,53,15.50
2013,09,26,11,54,15.50
2013,09,26,11,55,15.50
2013,09,26,11,56,15.60
2013,09,26,11,57,15.60
2013,09,26,11,58,15.50
2013,09,26,11,59,15.50
2013,09,26,12,00,15.50
2013,09,26,12,01,15.40
2013,09,26,12,02,15.30
2013,09,26,12,03,15.30
2013,09,26,12,04,15.30
2013,09,26,12,05,15.30
2013,09,26,12,06,15.30
2013,09,26,12,07,15.20
2013,09,26,12,08,15.20
2013,09,26,12,09,15.10
2013,09,26,12,10,15.10
2013,09,26,12,11,15.20
2013,09,26,12,12,15.20
2013,09,26,12,13,15.30
2013,09,26,12,14,15.30
2013,09,26,12,15,15.40
2013,09,26,12,16,15.40
2013,09,26,12,17,15.40
2013,09,26,12,18,15.40
2013,09,26,12,19,15.40
2013,09,26,12,20,15.40
2013,09,26,12,21,15.50
2013,09,26,12,22,15.60
2013,09,26,12,23,15.60
2013,09,26,12,24,15.60
2013,09,26,12,25,15.60
2013,09,26,12,26,15.60
2013,09,26,12,27,15.50
2013,09,26,12,28,15.50
2013,09,26,12,29,15.50
2013,09,26,12,30,15.60
2013,09,26,12,31,15.60
2013,09,26,12,32,15.70
2013,09,26,12,33,15.70
2013,09,26,12,34,15.80
2013,09,26,12,35,15.80
2013,09,26,12,36,15.80
2013,09,26,12,37,15.80
2013,09,26,12,38,15.90
2013,09,26,12,39,15.90
2013,09,26,12,40,15.90
2013,09,26,12,41,15.90
2013,09,26,12,42,15.90
2013,09,26,12,43,15.80
2013,09,26,12,44,15.80
2013,09,26,12,45,15.80
2013,09,26,12,46,15.80
2013,09,26,12,47,15.70
2013,09,26,12,48,15.60
2013,09,26,12,49,15.60
2013,09,26,12,50,15.70
2013,09,26,12,51,15.80
2013,09,26,12,52,15.80
2013,09,26,12,53,15.80
2013,09,26,12,54,15.70
2013,09,26,12,55,15.60
2013,09,26,12,56,15.70
2013,09,26,12,57,15.70
2013,09,26,12,58,15.70
2013,09,26,12,59,15.80
2013,09,26,13,00,15.90
2013,09,26,13,01,15.90
2013,09,26,13,02,15.90
2013,09,26,13,03,15.80
2013,09,26,13,04,15.70
2013,09,26,13,05,15.70
2013,09,26,13,06,15.80
2013,09,26,13,07,15.80
2013,09,26,13,08,15.80
2013,09,26,13,09,15.80
2013,09,26,13,10,15.80
2013,09,26,13,11,15.80
2013,09,26,13,12,15.80
2013,09,26,13,13,15.70
2013,09,26,13,14,15.70
2013,09,26,13,15,15.70
2013,09,26,13,16,15.70
2013,09,26,13,17,15.80
2013,09,26,13,18,15.80
2013,09,26,13,19,15.80
2013,09,26,13,20,15.80
2013,09,26,13,21,15.90
2013,09,26,13,22,15.90
2013,09,26,13,23,16.00
2013,09,26,13,24,16.00
2013,09,26,13,25,15.90
2013,09,26,13,26,15.90
2013,09,26,13,27,15.90
2013,09,26,13,28,16.10
2013,09,26,13,29,16.10
2013,09,26,13,30,16.10
2013,09,26,13,31,16.10
2013,09,26,13,32,16.20
2013,09,26,13,33,16.30
2013,09,26,13,34,16.40
2013,09,26,13,35,16.40
2013,09,26,13,36,16.40
2013,09,26,13,37,16.60
2013,09,26,13,38,16.70
2013,09,26,13,39,16.80
2013,09,26,13,40,16.90
2013,09,26,13,41,16.90
2013,09,26,13,42,17.00
2013,09,26,13,43,17.00
2013,09,26,13,44,16.90
2013,09,26,13,45,16.80
2013,09,26,13,46,16.70
2013,09,26,13,47,16.70
2013,09,26,13,48,16.60
2013,09,26,13,49,16.60
2013,09,26,13,50,16.60
2013,09,26,13,51,16.70
2013,09,26,13,52,16.70
2013,09,26,13,53,16.70
2013,09,26,13,54,16.60
2013,09,26,13,55,16.70
2013,09,26,13,56,16.70
2013,09,26,13,57,16.90
2013,09,26,13,58,16.90
2013,09,26,13,59,16.90
2013,09,26,14,00,16.90
2013,09,26,14,01,16.90
2013,09,26,14,02,16.90
2013,09,26,14,03,16.90
2013,09,26,14,04,16.90
2013,09,26,14,05,16.90
2013,09,26,14,06,16.90
2013,09,26,14,07,16.90
2013,09,26,14,08,16.90
2013,09,26,14,09,16.70
2013,09,26,14,10,16.50
2013,09,26,14,11,16.30
2013,09,26,14,12,16.10
2013,09,26,14,13,15.90
2013,09,26,14,14,15.70
2013,09,26,14,15,15.50
2013,09,26,14,16,15.40
2013,09,26,14,17,15.30
2013,09,26,14,18,15.30
2013,09,26,14,19,15.20
2013,09,26,14,20,15.10
2013,09,26,14,21,15.10
2013,09,26,14,22,15.20
2013,09,26,14,23,15.10
2013,09,26,14,24,15.00
2013,09,26,14,25,15.00
2013,09,26,14,26,15.00
2013,09,26,14,27,14.90
2013,09,26,14,28,14.80
2013,09,26,14,29,14.80
2013,09,26,14,30,14.80
2013,09,26,14,31,15.00
2013,09,26,14,32,15.00
2013,09,26,14,33,15.10
2013,09,26,14,34,15.10
2013,09,26,14,35,15.10
2013,09,26,14,36,15.00
2013,09,26,14,37,14.90
2013,09,26,14,38,14.90
2013,09,26,14,39,15.00
2013,09,26,14,40,15.00
2013,09,26,14,41,15.00
2013,09,26,14,42,14.80
2013,09,26,14,43,14.70
2013,09,26,14,44,14.50
2013,09,26,14,45,14.40
2013,09,26,14,46,14.30
2013,09,26,14,47,14.30
2013,09,26,14,48,14.20
2013,09,26,14,49,14.20
2013,09,26,14,50,14.20
2013,09,26,14,51,14.20
2013,09,26,14,52,14.30
2013,09,26,14,53,14.40
2013,09,26,14,54,14.60
2013,09,26,14,55,14.80
2013,09,26,14,56,14.90
2013,09,26,14,57,14.90
2013,09,26,14,58,15.10
2013,09,26,14,59,15.10
2013,09,26,15,00,15.10
2013,09,26,15,01,15.10
2013,09,26,15,02,15.00
2013,09,26,15,03,15.00
2013,09,26,15,04,14.90
2013,09,26,15,05,14.80
2013,09,26,15,06,14.80
2013,09,26,15,07,14.90
2013,09,26,15,08,15.00
2013,09,26,15,09,14.90
2013,09,26,15,10,15.00
2013,09,26,15,11,15.00
2013,09,26,15,12,14.90
2013,09,26,15,13,14.80
2013,09,26,15,14,14.80
2013,09,26,15,15,14.80
2013,09,26,15,16,14.80
2013,09,26,15,17,14.90
2013,09,26,15,18,15.00
2013,09,26,15,19,15.10
2013,09,26,15,20,15.10
2013,09,26,15,21,15.00
2013,09,26,15,22,15.00
2013,09,26,15,23,14.90
2013,09,26,15,24,14.80
2013,09,26,15,25,14.80
2013,09,26,15,26,14.90
2013,09,26,15,27,14.90
2013,09,26,15,28,14.90
2013,09,26,15,29,14.90
2013,09,26,15,30,15.00
2013,09,26,15,31,15.00
2013,09,26,15,32,15.00
2013,09,26,15,33,14.90
2013,09,26,15,34,14.80
2013,09,26,15,35,14.80
2013,09,26,15,36,14.90
2013,09,26,15,37,15.00
2013,09,26,15,38,15.00
2013,09,26,15,39,15.00
2013,09,26,15,40,15.10
2013,09,26,15,41,15.20
2013,09,26,15,42,15.20
2013,09,26,15,43,15.10
2013,09,26,15,44,15.10
2013,09,26,15,45,15.10
2013,09,26,15,46,15.10
2013,09,26,15,47,15.10
2013,09,26,15,48,14.90
2013,09,26,15,49,14.80
2013,09,26,15,50,14.70
2013,09,26,15,51,14.60
2013,09,26,15,52,14.60
2013,09,26,15,53,14.60
2013,09,26,15,54,14.50
2013,09,26,15,55,14.50
2013,09,26,15,56,14.50
2013,09,26,15,57,14.40
2013,09,26,15,58,14.30
2013,09,26,15,59,14.20
2013,09,26,16,00,14.30
2013,09,26,16,01,14.30
2013,09,26,16,02,14.40
2013,09,26,16,03,14.40
2013,09,26,16,04,14.40
2013,09,26,16,05,14.30
2013,09,26,16,06,14.20
2013,09,26,16,07,14.20
2013,09,26,16,08,14.20
2013,09,26,16,09,14.20
2013,09,26,16,10,14.20
2013,09,26,16,11,14.20
2013,09,26,16,12,14.20
2013,09,26,16,13,14.20
2013,09,26,16,14,14.20
2013,09,26,16,15,14.20
2013,09,26,16,16,14.30
2013,09,26,16,17,14.30
2013,09,26,16,18,14.30
2013,09,26,16,19,14.30
2013,09,26,16,20,14.30
2013,09,26,16,21,14.40
2013,09,26,16,22,14.50
2013,09,26,16,23,14.50
2013,09,26,16,24,14.50
2013,09,26,16,25,14.50
2013,09,26,16,26,14.50
2013,09,26,16,27,14.60
2013,09,26,16,28,14.70
2013,09,26,16,29,14.80
2013,09,26,16,30,14.90
2013,09,26,16,31,14.90
2013,09,26,16,32,14.90
2013,09,26,16,33,14.90
2013,09,26,16,34,14.90
2013,09,26,16,35,14.70
2013,09,26,16,36,14.70
2013,09,26,16,37,14.70
2013,09,26,16,38,14.70
2013,09,26,16,39,14.80
2013,09,26,16,40,14.80
2013,09,26,16,41,14.70
2013,09,26,16,42,14.70
2013,09,26,16,43,14.60
2013,09,26,16,44,14.60
2013,09,26,16,45,14.60
2013,09,26,16,46,14.60
2013,09,26,16,47,14.60
2013,09,26,16,48,14.60
2013,09,26,16,49,14.60
2013,09,26,16,50,14.60
2013,09,26,16,51,14.60
2013,09,26,16,52,14.70
2013,09,26,16,53,14.80
2013,09,26,16,54,14.70
2013,09,26,16,55,14.70
2013,09,26,16,56,14.80
2013,09,26,16,57,14.80
2013,09,26,16,58,14.80
2013,09,26,16,59,14.80
2013,09,26,17,00,14.80
2013,09,26,17,01,14.80
2013,09,26,17,02,14.80
2013,09,26,17,03,14.80
2013,09,26,17,04,14.80
2013,09,26,17,05,14.70
2013,09,26,17,06,14.70
2013,09,26,17,07,14.60
2013,09,26,17,08,14.70
2013,09,26,17,09,14.70
2013,09,26,17,10,14.80
2013,09,26,17,11,14.70
2013,09,26,17,12,14.70
2013,09,26,17,13,14.80
2013,09,26,17,14,14.70
2013,09,26,17,15,14.70
2013,09,26,17,16,14.70
2013,09,26,17,17,14.70
2013,09,26,17,18,14.70
2013,09,26,17,19,14.80
2013,09,26,17,20,14.80
2013,09,26,17,21,14.80
2013,09,26,17,22,14.70
2013,09,26,17,23,14.80
2013,09,26,17,24,14.80
2013,09,26,17,25,14.80
2013,09,26,17,26,14.80
2013,09,26,17,27,14.80
2013,09,26,17,28,14.80
2013,09,26,17,29,14.80
2013,09,26,17,30,14.80
2013,09,26,17,31,14.90
2013,09,26,17,32,14.90
2013,09,26,17,33,14.90
2013,09,26,17,34,14.90
2013,09,26,17,35,14.90
2013,09,26,17,36,14.80
2013,09,26,17,37,14.80
2013,09,26,17,38,14.80
2013,09,26,17,39,14.80
2013,09,26,17,40,14.80
2013,09,26,17,41,14.70
2013,09,26,17,42,14.80
2013,09,26,17,43,14.80